Other Public Products
Issued by NWS Grand Forks, ND

Home | Current Version | Previous Version | Graphics & Text | Print | Product List | Glossary On
Versions: 1 2 3 4 5 6 7 8 9 10 11 12 13 14 15 16 17 18 19 20 21 22 23 24 25 26 27 28 29 30 31 32 33 34 35 36 37 38 39 40 41 42 43 44 45 46 47 48 49 50
000
FPUS83 KFGF 271231
OPUFGF
PRAIRIE TO PINES WEATHER ROUNDUP
NATIONAL WEATHER SERVICE EASTERN NORTH DAKOTA/GRAND FORKS ND
700 AM CDT SAT AUG 27 2016

 **SATELLITE DATA USED TO AUGMENT SKY COVER AT AUTOMATED STATIONS**
 *****  WEATHER ACROSS EASTERN NORTH DAKOTA  *****

CITY           SKY/WX    TMP DP  RH WIND       PRES   REMARKS
GRAND FORKS    RAIN      60  58  92 S9        29.96R FOG
6HR MIN TEMP:  55; 6HR MAX TEMP:  60; 6HR PCP:  0.01;

GRAND FORKS AF LGT RAIN  59  57  94 S15       29.93F FOG
GRAND CITY NWS   N/A     57 N/A N/A S3          N/A
BUXTON           N/A     61  60  99 W5          N/A
DEVILS LAKE    CLOUDY    56  53  90 SE8       29.93S
6HR MIN TEMP:  55; 6HR MAX TEMP:  60;

FARGO          CLOUDY    61  59  93 SE8       29.98S
6HR MIN TEMP:  61; 6HR MAX TEMP:  64; 6HR PCP:  0.07;

WAHPETON ARPT  CLOUDY    59  55  88 SE6       30.00S
$$

 *****  WEATHER ACROSS CENTRAL AND WESTERN NORTH DAKOTA  *****

CITY           SKY/WX    TMP DP  RH WIND       PRES   REMARKS
JAMESTOWN      CLOUDY    57  56  96 S8        29.94S
6HR MIN TEMP:  55; 6HR MAX TEMP:  58; 6HR PCP:  0.01;

BISMARCK       CLEAR     48  48 100 CALM      29.93S
6HR MIN TEMP:  48; 6HR MAX TEMP:  56;

MINOT          MOCLDY    56  52  86 CALM      29.89S
6HR MIN TEMP:  53; 6HR MAX TEMP:  61;

MINOT AFB      MOCLDY    48  47  95 W5        29.89R
6HR MIN TEMP:  48; 6HR MAX TEMP:  58;

GARRISON         N/A     53  52  96 W6        29.90F
6HR MIN TEMP:  51; 6HR MAX TEMP:  62; 6HR PCP:  0.01;

WILLISTON      CLEAR     45  41  86 CALM      29.92R
6HR MIN TEMP:  44; 6HR MAX TEMP:  55;

DICKINSON      MOCLDY    50  46  86 S7        29.91F
6HR MIN TEMP:  48; 6HR MAX TEMP:  55; 6HR PCP:  0.04;

HETTINGER      FOG       42  41  96 E3        29.97S VSB 1/4
6HR MIN TEMP:  40; 6HR MAX TEMP:  56;

$$

 *****  OTHER OBSERVATIONS NORTHEAST NORTH DAKOTA  *****

CITY           SKY/WX    TMP DP  RH WIND       PRES   REMARKS
WALHALLA       FAIR      50  50 100 SE5       29.91F
LANGDON        FAIR      54  52  94 S9        29.92S
CAVALIER       FAIR      52  50  93 S3        29.93R
GRAFTON        PTSUNNY   55  55 100 S9        29.96R
CANDO          FAIR      50  50 100 SE5       29.94R
FORT TOTTEN      N/A     52  50  92 S6        29.95S
ROLLA          PTSUNNY   54  54 100 W7        29.91S
RUGBY          NOT AVBL
 ***** THE ABOVE OBSERVATIONS ARE NON NWS ARE NOT QUALITY
        CONTROLLED AND MAY MIS-REPORT RAIN FOR SNOW...
$$

 *****  OTHER OBSERVATIONS SOUTHEAST NORTH DAKOTA *****

CITY           SKY/WX    TMP DP  RH WIND       PRES   REMARKS
COOPERSTOWN    NOT AVBL
VALLEY CITY    CLOUDY    59  59 100 S5        29.97S
OAKES            N/A    N/A N/A N/A MISG        N/A
GWINNER        FAIR      59  59 100 SE5       29.97F
SHEYENNE NWR     N/A     59  58  96 SE7       29.95
BUFFALO          N/A     60  58  92 SE10        N/A
WYNDMERE         N/A     59  57  94 SE3         N/A
 ***** THE ABOVE OBSERVATIONS ARE NON NWS ARE NOT QUALITY
       CONTROLLED AND MAY MIS-REPORT RAIN FOR SNOW...
$$

  *****  WEATHER ACROSS NORTHERN MINNESOTA  *****

CITY           SKY/WX    TMP DP  RH WIND       PRES   REMARKS
FLAG ISLAND    MOCLDY    64  55  72 CALM      29.98S HAZE
WARROAD        CLOUDY    57  54  88 S8        29.99F
ROSEAU         PTCLDY    59  54  82 S7        29.98F
HALLOCK        PTCLDY    55  52  88 SE7       29.94S
THF RVR FALLS  LGT RAIN  59  56  89 S8        29.99F
6HR MIN TEMP:  54; 6HR MAX TEMP:  59; 6HR PCP: TRACE;

HALSTAD          N/A     60  59  96 S10         N/A
FOSSTON        LGT RAIN  59  55  88 SE7       30.01F
BAUDETTE       CLOUDY    57  55  93 S6        30.01S
6HR MIN TEMP:  55; 6HR MAX TEMP:  61;

WASKISH        CLOUDY    59  55  88 SE3       30.04R
CROOKSTON      LGT RAIN  59  57  94 S14         N/A
$$
  *****  WEATHER ACROSS CENTRAL AND WEST MINNESOTA  *****

CITY           SKY/WX    TMP DP  RH WIND       PRES   REMARKS
BEMIDJI        CLOUDY    58  57  95 SE3       30.04F
PARK RAPIDS    CLOUDY    59  55  87 SE6       30.05S
6HR MIN TEMP:  59; 6HR MAX TEMP:  62; 6HR PCP: TRACE;

WADENA         CLOUDY    57  55  94 SE3       30.05R
DETROIT LAKES  MOCLDY    61  59  94 SE7       30.03S
MOORHEAD       MOCLDY    61  57  88 S6        29.99F
FERGUS FALLS   CLOUDY    63  57  82 SE9       30.03S
ELBOW LAKE     CLOUDY    59  58  94 E8        30.03S
MORRIS MN      CLOUDY    61  59  94 SE3       30.02S
STAPLES        CLOUDY    57  55  94 SE5       30.06S
WHEATON        CLOUDY    61  61 100 SE9       30.02S
$$
  *****  WEATHER ELSEWHERE ACROSS MINNESOTA  *****

CITY           SKY/WX    TMP DP  RH WIND       PRES   REMARKS
DULUTH         CLOUDY    57  55  93 E5        30.10R
6HR MIN TEMP:  57; 6HR MAX TEMP:  61;

INTRNTL FALLS  CLOUDY    54  53  97 SE3       30.05S
6HR MIN TEMP:  51; 6HR MAX TEMP:  59;

ELY            CLOUDY    55  54  94 CALM      30.10S
CLOQUET        MOCLDY    57  54  88 CALM      30.11R
BRAINERD       CLOUDY    59  56  89 SE3       30.07S
6HR MIN TEMP:  58; 6HR MAX TEMP:  61; 6HR PCP: TRACE;

HIBBING        CLOUDY    52  52 100 CALM      30.09S
6HR MIN TEMP:  51; 6HR MAX TEMP:  53;

ALEXANDRIA     CLOUDY    59  57  93 SE5       30.06S
6HR MIN TEMP:  59; 6HR MAX TEMP:  62;

SAINT CLOUD    CLOUDY    58  58 100 E5        30.07R
6HR MIN TEMP:  58; 6HR MAX TEMP:  60; 6HR PCP: TRACE;

MINNEAPOLIS    CLOUDY    64  59  83 E5        30.07R
6HR MIN TEMP:  64; 6HR MAX TEMP:  65; 6HR PCP: TRACE;

$$

  *****  WEATHER ACROSS SOUTH DAKOTA  *****

CITY           SKY/WX    TMP DP  RH WIND       PRES   REMARKS
SIOUX FALLS    CLOUDY    61  61 100 E5        30.02S FOG
6HR MIN TEMP:  61; 6HR MAX TEMP:  65; 6HR PCP:  0.64;

BROOKINGS      CLOUDY    59  57  93 SE7       30.03R
WATERTOWN      CLOUDY    61  59  93 S7        30.01F
6HR MIN TEMP:  60; 6HR MAX TEMP:  63;

HURON          FOG       58  58 100 SE7       29.97F VSB 1/4
6HR MIN TEMP:  56; 6HR MAX TEMP:  62;

SISSETON         N/A     60  58  92 S7        29.98S
ABERDEEN       MOCLDY    59  57  93 S10       29.96F
6HR MIN TEMP:  56; 6HR MAX TEMP:  60;

MITCHELL       CLOUDY    63  61  93 SE6       30.00S
PIERRE         CLOUDY    56  54  93 SW7       29.96R
6HR MIN TEMP:  54; 6HR MAX TEMP:  58;

MOBRIDGE       PTCLDY    56  52  86 S3        29.92S
RAPID CITY     LGT RAIN  53  51  93 E6        30.00S
6HR MIN TEMP:  51; 6HR MAX TEMP:  59; 6HR PCP:  0.19;

$$

  *****  SOME WEATHER IN NEARBY STATES *****

CITY           SKY/WX    TMP DP  RH WIND       PRES   REMARKS
GLASGOW MT     CLEAR     46  42  86 E8        29.87F
6HR MIN TEMP:  46; 6HR MAX TEMP:  52;

GREAT FALLS MT CLOUDY    60  35  39 S12       29.84F
6HR MIN TEMP:  49; 6HR MAX TEMP:  60;

CHEYENNE WY    CLEAR     48  42  80 W9        30.15R
6HR MIN TEMP:  47; 6HR MAX TEMP:  53;

SCOTTSBLUFF NE FOG       54  53  97 SE7       30.05S VSB 1/4
6HR MIN TEMP:  51; 6HR MAX TEMP:  57;

OMAHA NE       FOG       67  64  90 S7        30.01R VSB 1/2
6HR MIN TEMP:  66; 6HR MAX TEMP:  67;

DES MOINES IA  CLOUDY    64  62  93 N3        30.01R FOG
6HR MIN TEMP:  64; 6HR MAX TEMP:  65; 6HR PCP: TRACE;

DAVENPORT IA   CLOUDY    70  68  93 S3        30.04R
6HR MIN TEMP:  67; 6HR MAX TEMP:  70; 6HR PCP:  0.11;

CHICAGO IL     LGT RAIN  69  68  96 SE7       30.08F FOG
6HR MIN TEMP:  67; 6HR MAX TEMP:  70; 6HR PCP:  0.63;

EAU CLAIRE WI  PTCLDY    59  57  93 E5        30.09S
6HR MIN TEMP:  58; 6HR MAX TEMP:  63;

LA CROSSE WI   CLOUDY    64  61  90 E5        30.08R
6HR MIN TEMP:  63; 6HR MAX TEMP:  65; 6HR PCP: TRACE;

$$

  *****  SOME NATIONAL WEATHER *****

CITY           SKY/WX    TMP DP  RH WIND       PRES   REMARKS
LA GUARDIA NY  MOSUNNY   78  61  55 NE6       30.17R
6HR MIN TEMP:  76; 6HR MAX TEMP:  80;                              C1F1C2F2C3F3C4F4C5F5C6F6C7F7C8F8C9F9CaFaCbFbCcFcCdFdCe!


USA.gov is the U.S. government's official web portal to all federal, state and local government web resources and services.